Tracking 28790 objects as of 19-Apr-2024
HD Live streaming from Space Station
objects crossing your sky now

FENGYUN 1C DEB

Track FENGYUN 1C DEB now!
10-day predictions


NORAD ID: 30403
Int'l Code: 1999-025ADS
Perigee: 796.6 km
Apogee: 917.6 km
Inclination: 99.1 °
Period: 101.9 minutes
Semi major axis: 7228 km
RCS: 0.0223 m2 (small)
Launch date: May 10, 1999
Source: People's Republic of China (PRC)
Launch site: Taiyaun Space Center, China (TSC)

Note: This is SATELLITE DEBRIS
Your satellite tracking list
Your tracking list is empty




NASA's NSSDC Master Catalog

Two Line Element Set (TLE):
1 30403U 99025ADS 24109.81154564  .00007595  00000-0  39787-2 0  9997
2 30403  99.0853 169.5661 0083736 292.8619  66.3727 14.12751216882643
Source of the keplerian elements: AFSPC